Погода в Елгаве

Погода в Елгаве : погода сейчас, прогноз погоды и архив. Всё, что Вы хотите узнать о погоде в Елгаве!

Поиск расширенной информации на нашем сайте:

Другие новости

Новости СМИ2

Главная страница сайта

Новости сайта

03.07.2017

Напоминаем, что на нашем специализированном сайте Метеоцентр.Азия вы можете получить высокодетализированные автоматические прогнозы погоды по пунктам России, СНГ и мира в авиационном формате (включающие направление и скорость ветра, видимость, явления погоды, количество и форму облачности, нижнюю и верхнюю границу облачности).


Погода в Елгаве - сегодня

Время (UTC), дата Ветер
(°,м/с) 
Видим.   Явления Облачность Т
(°С)
Тd
(°С)
f(%) Тe
(°С)
Pmin
(гПа)
dP
(гПа)
Po
(мм)
O2
(г/м3)
Тmin Tmax R s Состояние
почвы
12 10.12.17 180 (Ю) 3-4  н/о    н/о 
+1 -0.7 88 -1  999.2  -1.1  749  301           
15 10.12.17 190 (Ю) 4-5  н/о    н/о 
+0.6 -1.5 86 -2  999.8  0.6  749  301           
18 10.12.17 160 (Ю) 3-5  н/о    н/о 
-0.4 -2.1 88 -2  999.2  -0.5  749  302           
21 10.12.17 160 (Ю) 3-5  н/о    н/о 
+0.3 -1.5 88 -1  999.3  0.1  749  302           
00 11.12.17 130 (ЮВ) 3-5  н/о    н/о 
-1.6 -2.4 94 -4  998.3  -1  748  303           
03 11.12.17 120 (ЮВ) 4-8  н/о    н/о 
-1.6 -3.3 88 -4  997.4  -0.9  747  303           
06 11.12.17 130 (ЮВ) 5-8  н/о    н/о 
-1.2 -3.2 86 -4  997.1  -0.3  747  303           
09 11.12.17 130 (ЮВ) 5-8  н/о    н/о 
-0.6 -3 84 -4  997.5  0.5  747  302           
12 11.12.17 110 (В) 5-7  н/о    н/о 
-0.9 -2 92 -4  996.7  -0.8  747  302           
15 11.12.17 130 (ЮВ) 5-8  н/о    н/о 
-0.1 -2 87 -3  997.9  1.2  748  302           
18 11.12.17 130 (ЮВ) 4-6  н/о    н/о 
+0.6 -1 89 -2  999  1.1  749  301           
21 11.12.17 130 (ЮВ) 4-7  н/о    н/о 
+1.2 -0.4 89 -1  998.9  -0.1  749  300           
00 12.12.17 130 (ЮВ) 5-8  н/о    н/о 
+1.2 -0.1 91 -2  997.9  -1.1  748  300           
03 12.12.17 130 (ЮВ) 6-8  н/о    н/о 
+1.7 +0.1 89 -1  995.2  -2.6  746  299           
06 12.12.17 140 (ЮВ) 5-10  н/о    н/о 
+2.4 +0.8 89 993.8  -1.4  745  297           
12 12.12.17 170 (Ю) 6-9  н/о    н/о 
+4 +2.5 90 +1  991.1  -1.4  743  295           
15 12.12.17 190 (Ю) 6-8  н/о    н/о 
+5.2 +3.8 91 +3  992.4  1.4  744  293           
18 12.12.17 210 (ЮЗ) 9-14  н/о    н/о 
+6.7 +3.9 82 +4  993.6  1.2  745  292           
21 12.12.17 210 (ЮЗ) 12-16  н/о    н/о 
+5.3 +1.5 76 +1  995.2  1.6  746  295           
00 13.12.17 230 (ЮЗ) 11-16  н/о    н/о 
+3.9 +0.9 81 996.4  1.2  747  296           
03 13.12.17 250 (З) 8-10  н/о    н/о 
+2.7 +1.1 89 -1  1001.5  750  299           
06 13.12.17 240 (ЮЗ) 5-7  н/о    н/о 
+0.9 -0.7 89 -2  1005.6  4.1  754  303           
09 13.12.17 210 (ЮЗ) 4-6  н/о    н/о 
+1.3 -1.1 84 -1  1007.6  755  303           
12 13.12.17 210 (ЮЗ) 7-9  н/о    н/о 
+1.4 +0.4 93 -2  1007.8  0.1  755  303           
15 13.12.17 220 (ЮЗ) 7-9  н/о    н/о 
+1.7 +0.4 91 -2  1008.2  0.4  755  302           
Время (UTC), дата Ветер
(°,м/с) 
Видим.   Явления Облачность Т
(°С)
Тd
(°С)
f(%) Тe
(°С)
Pmin
(гПа)
dP
(гПа)
Po
(мм)
O2
(г/м3)
Тmin Tmax R s Состояние
почвы

Для получения пояснительной информации подведите курсор к названию столбца.

ПОГОДА в Елгаве - архив

Всё, что Вы хотите узнать о погоде в Елгаве - удобно и подробно!

Выберите нужную дату (начиная с 1 января 2015* года) и нажмите кнопку "Найти".
Будут отображены архивные сводки погоды по пункту Елгава, начиная с указанной даты.


Отображать данные в формате CSV (для использования в таблицах Excel)


Внимание! Наш архив погоды предназначен исключительно для личного некоммерческого использования в познавательных целях. Если Вам необходимы официальные справки о состоянии погоды (для производственных, юридических, коммерческих и т.п. целей), обращайтесь в органы Росгидромета.

*Примечание: данная дата относится к архиву по метеостанциям СССР (Россия, СНГ, Балтия).
Архив по метеостанциям Зарубежной Европы и Азии (кроме Китая) хранится 10 дней, по другим регионам земного шара (Китай, Африка, Америка, Австралия, Океания) - 1 день.

Елгава - район местоположения метеостанции


Название, широта, долгота, высота метеостанции:
Елгава 56.6°ш. 23.7°д. 9 м над ур. моря [Латвия]

Дополнительная информация

В oтличие oт бoльшинства пoгoдных сайтoв мы публикуем пoдрoбную метеoинфoрмацию в детальнoм прoфессиoнальнoм фoрмате.

Характеристики температуры и влажнoсти вoздуха измеряются на высoте 2 м в тени вдали oт зданий и деревьев.
Скoрoсть ветра измеряется на высoте 10 м (на урoвне рoста челoвека скoрoсть ветра ниже в 1.5-2 раза). Если метеoстанция нахoдится в гoрoде или в лесу, тo скoрoсть ветра занижена на 2-4 м/с пo сравнению с oткрытым местoм. Скoрoсть ветра над акватoриями крупных рек и oзёр, а также на вершинах хoлмoв на 2-5 м/с выше, чем в oбычных услoвиях.
Атмoсфернoе давление в разных тoчках местнoсти мoжет значительнo oтличаться oт давления на метеoстанции, в зависимoсти oт услoвий рельефа (при пoдъёме на 10 м давление пoнижается примернo на 1 мм рт.ст.).